Weather in Montes Claros

Brazil     16°44′11″S   43°52′19″W
temp.,
°C
wind,
m/s
gust,
m/s
humid.,
%
clouds,
%
prec.,
mm/h
press.,
hPa
HPBL,
m
7 march, sun
sun700:00+21s12843 0.0 101324
03:00+20sw118539 0.1 101223
06:00+20ssw2287100 0.3 101330
09:00+25s127481 0.5 1015395
12:00+30nw235213 0.8 10131592
15:00+30nw455424 1.1 10111727
18:00+24sw2381100 1.5 101156
21:00+21ssw118590 1.5 101323
8 march, mon
mon800:00+20ssw12860 0.0 101423
03:00+20s228935 0.0 101328
06:00+19s129150 0.0 101325
09:00+25nne127125 0.1 1014422
12:00+29n235324 0.4 10121408
15:00+29nnw225640 1.1 10101734
18:00+23sw358297 1.3 1010124
21:00+21ssw228594 2.2 101327
9 march, tue
tue900:00+20ssw229276 1.5 101345
03:00+19s249488 1.8 1012127
06:00+18ssw239697 0.0 101288
09:00+24s347983 0.1 1013497
12:00+28w235824 2.2 10111258
15:00+27w226632 4.8 10091035
18:00+23nw1285100 5.3 100924
21:00+21n0192100 6.1 101127
10 march, wed
wed1000:00+20nw2293100 0.8 101169
03:00+20nnw1296100 1.3 101138
06:00+19nnw2295100 0.0 101273
09:00+21nne2390100 0.1 1014374
12:00+22nw2282100 0.0 1013550
15:00+23nnw2478100 0.0 1011517
18:00+21nne2285100 0.0 101163
21:00+20n118799 0.0 101324
11 march, thu
thu1100:00+20w118794 0.0 101323
03:00+20wnw018697 0.0 101223
06:00+20n1186100 0.0 101425
09:00+22nne2382100 0.2 1015400
12:00+26n456999 1.0 10141063
15:00+28nnw346169 1.1 10111526
18:00+23nnw12829 1.6 101124
21:00+21n018827 2.1 101323